Home   Weather   Houston   Past weeks

Flag for USA Past Weather in Houston, Texas, USA — Yesterday and Last 2 Weeks

65 °F

Passing clouds.

Feels Like: 65 °F
Forecast: 65 / 84 °F
Wind: No wind

Location: Houston Hobby Airport

Current Time: Oct 26, 2016 at 8:35:47 AM

Latest Report: Oct 26, 2016 at 7:53 AM

Visibility: 10 mi

Pressure: 30.14 "Hg

Humidity: 94%

Dew Point: 63 °F

Location of HoustonLocation

Past Weather in Houston — Graph


Houston Temperature Yesterday

Maximum temperature yesterday: 82 °F (at 2:53 PM)
Minimum temperature yesterday: 65 °F (at 4:53 AM)
Average temperature yesterday: 73 °F

High & Low Weather Summary for the Past Weeks

High91 °F (Oct 16, 1:53 PM)97% (Oct 13, 6:53 AM)30.29 "Hg (Oct 13, 6:53 AM)
Low54 °F (Oct 22, 4:53 AM)29% (Oct 22, 1:53 PM)29.82 "Hg (Oct 17, 5:53 PM)
Average76 °F74%30.08 "Hg
* Reported Oct 11 6:53 AM — Oct 26 6:53 AM, Houston, Weather by CustomWeather, © 2016

Note: Actual official high and low records may vary slightly from our data, if they occured in-between our weather recording intervals... More about our weather records


Houston Weather History for the Previous 24 Hours

Scroll right to see more
Time TempWeatherWind HumidityBarometerVisibility
6:53 AM
Wed, Oct 26
65 °FPassing clouds.3 mph94%30.14 "Hg10 mi
5:53 AM66 °FPassing clouds.No wind93%30.13 "Hg10 mi
4:53 AM68 °FPassing clouds.3 mph87%30.13 "Hg10 mi
3:53 AM69 °FPassing clouds.5 mph87%30.14 "Hg10 mi
2:53 AM70 °FPassing clouds.3 mph87%30.15 "Hg10 mi
1:53 AM71 °FPassing clouds.3 mph84%30.15 "Hg10 mi
12:53 AM71 °FPassing clouds.3 mph87%30.15 "Hg10 mi
11:53 PM
Tue, Oct 25
72 °FPassing clouds.5 mph84%30.16 "Hg10 mi
10:53 PM72 °FPassing clouds.5 mph84%30.16 "Hg10 mi
9:53 PM73 °FPassing clouds.6 mph84%30.16 "Hg10 mi
8:53 PM73 °FPassing clouds.7 mph84%30.15 "Hg10 mi
7:53 PM74 °FPassing clouds.6 mph79%30.15 "Hg10 mi
6:53 PM76 °FPassing clouds.8 mph72%30.14 "Hg10 mi
5:53 PM78 °FBroken clouds.9 mph64%30.12 "Hg10 mi
4:53 PM81 °FBroken clouds.8 mph58%30.12 "Hg10 mi
3:53 PM81 °FBroken clouds.7 mph56%30.11 "Hg10 mi
2:53 PM82 °FBroken clouds.7 mph56%30.12 "Hg10 mi
1:53 PM81 °FBroken clouds.6 mph56%30.15 "Hg10 mi
12:53 PM81 °FBroken clouds.3 mph56%30.19 "Hg10 mi
11:53 AM81 °FBroken clouds.7 mph62%30.22 "Hg10 mi
10:53 AM78 °FPartly sunny.6 mph66%30.23 "Hg10 mi
9:53 AM75 °FScattered clouds.6 mph76%30.23 "Hg10 mi
8:53 AM71 °FScattered clouds.6 mph84%30.22 "Hg10 mi
Weather by CustomWeather, © 2016

See weather overviewHow to use our weather pages